TELKOM 3S

Last updated on Dec. 5, 2020, 6:14 a.m. UTC

1 41944U 17007A   20338.62703951 -.00000345  00000-0  00000-0 0  9999
2 41944   0.0176 339.5040 0002432 280.2845 156.8730  1.00269534 13860
UTC
Height (km)
Latitude
Longitude
Inclination
Orbital Period
UTC large
Height (km)
Speed (km/s)
/
Latitude / Longitude
Inclination (degrees)
Orbital Period (minutes)
Azimuth
Elevation
Range (km)
Doppler Factor
iOS Compass Heading
iOS Angle

Next 30 passes for location: Hong Kong

Rise time Rise Azimuth (degrees) Set time Set Azimuth (degrees) Duration Max altitude (degrees)

No matching passes for this satellites